Regional Weather Roundup
Issued by NWS

Home | Current Version | Previous Version | Text Only | Print | Product List | Glossary Off
Versions: 1 2 3 4 5 6 7 8 9 10 11 12 13 14 15 16 17 18 19 20 21 22 23 24 25 26 27 28 29 30 31 32 33 34 35 36 37 38 39 40 41 42 43 44 45 46 47 48 49 50

000
ASUS43 KLSX 170907
RWRMO

WEATHER SUMMARY FOR MISSOURI
NATIONAL WEATHER SERVICE SPRINGFIELD MO
400 AM CDT THU APR 17 2014

NOTE: "FAIR" INDICATES FEW OR NO CLOUDS BELOW 12,000 FEET WITH NO
       SIGNIFICANT WEATHER AND/OR OBSTRUCTIONS TO VISIBILITY.
       CURRENT SKY AND/OR WEATHER CONDITIONS ARE NOT AVAILABLE FOR
       CHILLICOTHE AND FARMINGTON.

MOZ001>031-035>038-043-044-053-054-171000-
...NORTHERN AND WESTERN MISSOURI...

CITY           SKY/WX    TMP DP  RH WIND       PRES   REMARKS
KANSAS CTY INT CLOUDY    39  31  72 NW8       30.15R
KANSAS C DTWN  MOCLDY    41  31  67 NW6       30.15R
LEE`S SUMMIT   PTCLDY    40  31  70 NW8       30.14R
ST JOSEPH      CLOUDY    39  31  72 NW10      30.17R
CHILLICOTHE      N/A     41  33  73 NW5       30.13R
KIRKSVILLE     MOCLDY    39  34  82 W7        30.10R

$$
MOZ066>068-077>081-088>096-101>105-171000-
...SOUTHWEST MISSOURI...

CITY           SKY/WX    TMP DP  RH WIND       PRES   REMARKS
SPRINGFIELD    CLEAR     44  30  57 SE13      30.13R
JOPLIN         PTCLDY    44  31  60 W5        30.14R

$$
MOZ032>034-039>042-045>050-055>058-069>072-171000-
...CENTRAL MISSOURI...

CITY           SKY/WX    TMP DP  RH WIND       PRES   REMARKS
COLUMBIA       PTCLDY    46  31  55 S13       30.11R
JEFFERSON CITY PTCLDY    47  30  51 VRB3      30.13R
ROLLA          CLEAR     44  30  57 S13       30.13R
SEDALIA        PTCLDY    45  36  70 NW12      30.13R
WHITEMAN AFB   PTCLDY    42  33  69 N8        30.13R
OSAGE BEACH    MOCLDY    45  28  53 S7        30.14S

$$
MOZ051-052-059>065-171000-
...EAST CENTRAL MISSOURI...

CITY           SKY/WX    TMP DP  RH WIND       PRES   REMARKS
ST LOUIS INTL  MOCLDY    47  29  49 S7        30.15S
SPIRIT OF STL  PTCLDY    41  29  62 CALM      30.15S
ST CHARLES     PTCLDY    39  32  76 SE5       30.15S

$$
MOZ072>076-082>087-097>100-106>115-171000-
...SOUTH CENTRAL AND SOUTHEAST MISSOURI...

CITY           SKY/WX    TMP DP  RH WIND       PRES   REMARKS
CAPE GIRARDEAU CLEAR     36  32  85 E5        30.19S
FARMINGTON     CLEAR     39  28  65 S7        30.18S
POPLAR BLUFF   CLEAR     39  34  82 CALM      30.18R
WEST PLAINS    CLEAR     42  30  62 SW5       30.16R

$$



USA.gov is the U.S. government's official web portal to all federal, state and local government web resources and services.